Regional Weather Roundup
Issued by NWS

Home | Current Version | Previous Version | Text Only | Print | Product List | Glossary Off
Versions: 1 2 3 4 5 6 7 8 9 10 11 12 13 14 15 16 17 18 19 20 21 22 23 24 25 26 27 28 29 30 31 32 33 34 35 36 37 38 39 40 41 42 43 44 45 46 47 48 49 50

000
ASUS43 KFSD 290602
RWRSD

WEATHER ROUNDUP FOR SOUTH DAKOTA
NATIONAL WEATHER SERVICE SIOUX FALLS SD
100 AM CDT THU JUN 29 2017

NOTE: "FAIR" INDICATES FEW OR NO CLOUDS BELOW 12,000 FEET WITH NO
SIGNIFICANT WEATHER AND/OR OBSTRUCTIONS TO VISIBILITY.


SDZ001>005-009-010-012>017-290700-
NORTHWEST AND NORTH CENTRAL SOUTH DAKOTA

CITY           SKY/WX    TMP DP  RH WIND       PRES   REMARKS
BUFFALO          N/A     62  49  62 CALM      29.75R
FAITH            N/A     64  40  41 S12       29.77R
MOBRIDGE       PTCLDY    68  43  40 NE10      29.73F
$$

SDZ012>016-024>037-041>051-057-063-072>074-290700-
SOUTHWEST AND SOUTH CENTRAL SOUTH DAKOTA

CITY           SKY/WX    TMP DP  RH WIND       PRES   REMARKS
RAPID CTY ARPT CLOUDY    56  50  80 NW6       29.83F
PIERRE         CLOUDY    64  41  42 SE5       29.77R
CUSTER         CLOUDY    53  41  63 NE6       29.94R
ELLSWORTH AFB  CLOUDY    58  50  74 W9        29.83S
PHILIP         CLOUDY    65  52  62 NE9       29.77F
PINE RIDGE     CLOUDY    61  57  87 NE3       29.83R
SPEARFISH      CLOUDY    57  54  88 E6        29.86S
WINNER         FAIR      64  52  64 W9        29.82R
$$

SDZ004>011-016>023-039-040-290700-
NORTHEAST SOUTH DAKOTA

CITY           SKY/WX    TMP DP  RH WIND       PRES   REMARKS
ABERDEEN       PTCLDY    58  48  69 N3        29.73S
WATERTOWN      CLOUDY    58  57  97 CALM      29.73S
BROOKINGS      CLEAR     58  53  84 W3        29.75R
SISSETON         N/A     61  59  93 NW6       29.69F
$$

SDZ017-020-022-023-036>040-048>070-290700-
SOUTHEAST SOUTH DAKOTA

CITY           SKY/WX    TMP DP  RH WIND       PRES   REMARKS
SIOUX FALLS    PTCLDY    64  57  78 N3        29.73R
HURON          CLEAR     58  48  69 CALM      29.74R
CHAMBERLAIN    CLEAR     67  43  41 CALM      29.77R
MITCHELL       CLEAR     64  48  56 NW3       29.76R
YANKTON        CLEAR     69  57  65 N6        29.73R
$$

ABBREVIATIONS USED IN REMARKS
   TC - TEMPERATURE IN CELSIUS
  WCI - WIND CHILL INDEX
   HX - HEAT INDEX
  VSB - VISIBILITY





USA.gov is the U.S. government's official web portal to all federal, state and local government web resources and services.